This demonstration page uses our WeatherBlox Daily Observations layout. Learn more.

Left ArrowRight Arrow

Hourly Observations for April 4, 2021

Temp ( °F °C ) Dew Point ( °F °C ) Humidity (%) Winds ( mph kmh ) Pressure ( in mb ) Visibility ( mi km ) Precip ( " mm )
12:59 am 00:59 Mostly Clear 41 5 30 -1.1 65 65 S 5 7 30.31 1026 10 16 0.00 0.00
1:59 am 01:59 Clear 43 6.1 27 -2.8 53 53 S 6 9 30.29 1026 10 16 0.00 0.00
2:59 am 02:59 Clear 44 6.7 27 -2.8 51 51 SSW 6 9 30.26 1025 10 16 0.00 0.00
3:59 am 03:59 Clear 46 7.8 27 -2.8 47 47 SW 8 13 30.24 1024 10 16 0.00 0.00
4:59 am 04:59 Clear 46 7.8 26 -3.3 46 46 SW 8 13 30.23 1024 10 16 0.00 0.00
5:59 am 05:59 Clear 44 6.7 28 -2.2 53 53 SW 7 11 30.22 1023 10 16 0.00 0.00
6:59 am 06:59 Sunny 43 6.1 27 -2.8 53 53 SW 6 9 30.22 1023 10 16 0.00 0.00
7:59 am 07:59 Partly Cloudy 46 7.8 28 -2.2 50 50 WSW 6 9 30.22 1023 10 16 0.00 0.00
8:59 am 08:59 Partly Cloudy 49 9.4 30 -1.1 48 48 WSW 6 9 30.21 1023 10 16 0.00 0.00
9:59 am 09:59 Partly Cloudy 53 11.7 31 -0.6 43 43 VRB 6 9 30.19 1023 10 16 0.00 0.00
10:59 am 10:59 Mostly Cloudy 57 13.9 34 1.1 42 42 WSW 7 11 30.18 1022 10 16 0.00 0.00
11:59 am 11:59 Partly Cloudy 62 16.7 33 0.6 34 34 WSW 9 15 30.16 1021 10 16 0.00 0.00
12:59 pm 12:59 Mostly Sunny 67 19.4 29 -1.7 24 24 W 12 19 30.12 1020 10 16 0.00 0.00
1:59 pm 13:59 Sunny 69 20.6 32 0 25 25 WSW 8 13 30.08 1019 10 16 0.00 0.00
2:59 pm 14:59 Mostly Sunny 71 21.7 34 1.1 26 26 W 10 17 30.05 1018 10 16 0.00 0.00
3:59 pm 15:59 Partly Cloudy 73 22.8 36 2.2 26 26 WNW 13 20 30.03 1017 10 16 0.00 0.00
4:59 pm 16:59 Mostly Sunny 73 22.8 34 1.1 24 24 WNW 17 28 30.01 1016 10 16 0.00 0.00
5:59 pm 17:59 Mostly Sunny 72 22.2 35 1.7 26 26 WNW 16 26 30.00 1016 10 16 0.00 0.00
6:59 pm 18:59 Sunny 66 18.9 37 2.8 34 34 NNE 6 9 30.01 1016 10 16 0.00 0.00
7:59 pm 19:59 Clear 60 15.6 39 3.9 46 46 E 7 11 30.01 1016 10 16 0.00 0.00
8:59 pm 20:59 Clear 56 13.3 38 3.3 51 51 Calm 30.03 1017 10 16 0.00 0.00
9:59 pm 21:59 Clear 53 11.7 39 3.9 59 59 Calm 30.04 1017 10 16 0.00 0.00
10:59 pm 22:59 Clear 52 11.1 39 3.9 61 61 Calm 30.05 1018 10 16 0.00 0.00
11:59 pm 23:59 Clear 51 10.6 39 3.9 64 64 Calm 30.05 1018 10 16 0.00 0.00

Powered by AerisWeather